Location: Great Falls
(47.5000°N, 111.3000°W)
Time: 03:11:15
(UTC-07:00)

ISS - Pass Details

Date: 31 October 2019
Orbit: 412 x 421 km, 51.6° (Epoch: 15 November)

Event Time Altitude Azimuth Distance (km) Brightness Sun altitude
Exits shadow 07:15:43 13° 285° (WNW) 1,328 -1.9 -9.2°
Maximum altitude 07:18:28 40° 354° (N) 632 -3.0 -8.8°
Drops below altitude 10° 07:21:42 10° 66° (ENE) 1,507 0.0 -8.2°
Sets 07:23:52 0° 74° (ENE) 2,370 1.3 -7.9°
